Herzlich willkommen!

Am freundlichen Bodensee-Flugplatz zwischen Schwarzwald, Rhein und Alpen.

Aktuelles

21.07.2023
Abflugrichtung
Flying over the airfield is only intended during approaches.
Due to the risk of collision is it not permitted during departures.

Das Überfliegen des Platzes ist nur bei Anflügen vorgesehen. 
Wegen Kollisionsgefahr ist es nicht gestattet bei Abflügen.

Live am Platz

Zeiten genähert. Alle Angaben unverbindlich und ohne Gewähr.

Die Bilder unserer Webcams werden alle 5 Minuten aktualisiert.

Beginn bürgerliche Dämmerung, Sonnenaufgang:

03:14 UTC / 05:14 Lokal
03:49 UTC / 05:49 Lokal

Sonnenuntergang, Ende bürgerliche Dämmerung:

19:10 UTC / 21:10 Lokal
19:45 UTC / 21:45 Lokal

METAR (24.07.2024 23:20 UTC):

EDNY 242320Z AUTO VRB02KT 9999 // BKN048/// BKN054/// 17/14 Q1019
VFR

TAF (24.07.2024 17:00 UTC):

TAF EDNY 241700Z 2418/2503 VRB03KT 9999 SCT040

Für den Verkehrslandeplatz Konstanz werden keine offiziellen Wetterinformationen ausgegeben. Daher werden zur Orientierung Daten des nahegelegenen Flughafens Friedrichshafen dargestellt.

Das Landeentgelt kann bei uns mit aerops bezahlt werden. Die App für's Handy ist kostenfrei erhältlich.